Temp
66 65 65 64 64 64 64 63 63 63 63 63 63 63 63 63 63 63 63 63 63 63 64 63 63 62 56 49 49 63 68 67 68 65 62 59 55 54 51 52 54 50 54 58 60 59 58
66 66 65 65 64 64 63 63 63 63 63 63 63 63 62 62 62 62 62 62 62 63 63 63 63 61 50 42 60 64 64 63 62 61 61 61 58 58 55 54 54 56 57 57 58 60 58
65 65 65 64 64 64 63 63 62 62 62 63 63 62 62 62 62 62 62 62 62 62 62 63 62 57 50 48 60 60 63 63 62 62 58 61 62 63 60 54 58 56 50 55 56 57 57
65 65 65 64 64 63 63 62 62 62 63 63 63 62 61 61 61 61 62 62 62 62 62 62 62 53 44 60 63 60 60 61 62 63 62 64 64 63 61 61 57 51 48 43 52 54 57
65 65 64 64 64 64 63 62 62 62 63 62 62 61 61 60 60 60 60 60 61 61 62 61 54 50 45 62 54 58 60 55 57 60 62 66 61 59 60 53 50 51 45 42 48 55 53
65 65 64 64 63 63 63 63 62 62 62 62 62 61 60 60 60 59 59 59 60 58 57 58 56 45 48 48 55 58 59 60 56 56 56 56 56 52 48 45 41 45 46 40 43 49 49
65 64 64 63 63 63 63 62 62 62 62 62 61 60 60 58 59 59 57 53 46 44 49 45 45 46 51 55 59 55 59 58 55 51 47 53 48 44 47 53 47 47 43 43 46 51 47
64 64 64 63 62 63 62 62 62 62 62 61 61 60 59 58 58 58 55 47 50 52 41 49 51 50 55 54 48 53 61 51 49 42 51 49 44 53 51 52 51 49 47 42 48 50 47
64 64 64 63 62 62 62 62 61 61 61 61 60 59 58 57 58 55 51 52 56 56 43 44 49 49 51 54 48 49 57 53 46 44 47 46 50 57 53 48 49 48 46 42 44 48 48
63 63 63 63 62 61 61 61 61 61 60 60 60 59 57 57 52 53 50 55 55 56 35 38 43 48 52 51 45 57 60 55 48 44 49 48 53 53 52 47 49 42 49 51 47 43 37
63 63 63 62 62 61 61 60 60 60 60 59 59 59 58 57 53 50 54 55 55 50 22 42 44 57 52 46 48 49 60 55 44 45 50 46 47 47 48 51 51 46 53 51 49 40 35
63 62 62 62 61 61 60 60 60 60 59 59 59 59 58 55 54 55 56 56 51 35 25 36 44 43 43 46 48 51 52 55 56 49 49 47 54 52 51 53 54 54 50 48 44 39 32
62 62 61 61 61 61 60 60 60 60 59 59 58 58 57 57 51 56 55 49 34 29 40 36 38 43 44 41 45 47 44 43 43 38 40 44 47 52 55 49 52 50 47 35 34 31 31
62 61 61 61 61 61 60 60 60 60 59 58 57 57 57 57 57 56 51 40 30 35 37 45 42 43 39 44 45 46 44 42 47 44 43 39 36 46 52 49 45 46 43 34 29 29 32
61 61 61 60 61 61 60 60 60 59 58 57 57 54 53 56 57 55 44 33 34 41 44 43 43 37 38 44 43 44 43 42 48 50 40 38 38 46 51 51 53 42 41 44 37 31 31
61 60 60 61 61 60 60 59 59 59 58 57 51 48 49 57 57 51 40 36 41 50 48 46 37 42 37 40 41 41 41 50 49 52 49 44 36 46 47 54 51 47 49 39 36 30 28
60 60 60 60 60 59 59 58 59 59 58 56 48 44 53 57 55 47 37 38 46 53 50 47 42 40 44 40 42 40 41 48 52 49 49 45 41 41 46 43 44 43 40 39 40 35 31
60 60 60 60 59 58 58 58 58 58 57 51 45 42 54 56 44 46 41 47 51 50 51 49 51 49 45 43 44 42 42 46 54 51 46 47 40 36 42 42 46 43 43 42 36 32 31
60 60 59 59 58 58 58 58 58 58 56 45 43 48 54 52 42 43 47 48 50 49 49 49 46 51 51 45 42 45 45 50 51 50 48 48 39 33 37 40 41 40 41 41 39 37 31
60 59 59 58 58 57 57 57 58 57 57 46 47 43 47 48 47 45 44 45 45 49 48 52 49 50 50 46 46 42 42 49 51 51 52 53 42 39 36 37 42 37 40 40 41 34 33
59 59 59 58 58 58 57 57 57 57 56 47 42 47 48 40 43 46 47 47 44 44 50 52 47 50 46 42 42 41 44 46 50 52 48 51 42 40 40 42 42 42 42 41 40 41 39
59 59 58 58 58 58 57 57 57 56 55 45 42 43 46 42 47 47 45 44 45 46 48 48 46 47 48 46 44 42 45 44 45 46 46 49 41 41 37 41 40 39 41 41 40 40 38
59 58 58 58 57 57 57 56 56 56 53 44 43 48 49 45 44 45 45 47 46 49 48 49 49 48 45 47 47 48 48 47 48 49 45 44 42 40 34 38 37 36 41 39 40 41 43
58 58 58 58 57 57 56 56 56 56 53 46 44 45 43 42 45 45 47 47 45 47 46 47 50 49 49 52 52 52 50 48 47 44 46 43 40 38 32 33 28 39 42 44 42 42 44
58 58 58 57 57 56 56 56 56 56 55 45 44 44 42 38 40 41 43 42 43 43 44 45 46 46 50 49 45 42 43 44 42 43 43 45 41 34 34 31 37 39 42 42 43 39 44
58 58 58 57 56 56 56 56 56 56 55 46 45 45 43 41 40 44 42 40 39 39 40 42 44 46 48 46 44 36 35 38 37 37 43 42 42 39 27 28 30 39 45 48 48 38 46
58 57 57 57 56 56 56 55 55 55 55 49 45 46 44 40 40 41 42 42 41 38 37 38 41 42 43 39 36 35 35 38 35 36 36 36 35 34 34 32 36 44 47 48 37 38 44
56 57 56 56 56 55 55 55 55 55 55 50 47 47 46 40 40 44 45 42 41 41 40 41 43 43 39 38 37 34 34 36 34 35 34 35 31 31 31 30 31 44 45 41 42 42 44
55 56 56 55 55 55 55 55 55 55 55 53 46 48 48 44 43 45 46 46 45 46 41 39 41 40 42 36 35 35 33 32 35 34 37 36 39 36 37 36 43 41 43 43 45 44 43
MSLP
1014.36 1014.34 1014.31 1014.37 1014.29 1014.23 1014.39 1014.44 1014.31 1014.20 1014.06 1014.02 1013.91 1013.76 1013.61 1013.58 1013.50 1013.51 1013.51 1013.51 1013.48 1013.73 1013.85 1014.03 1014.27 1014.83 1015.60 1015.46 1013.89 1012.90 1012.88 1013.02 1012.95 1013.87 1013.96 1014.04 1014.05 1014.30 1014.44 1014.41 1014.53 1014.59 1014.22 1013.81 1013.39 1013.34 1013.48
1014.03 1013.95 1013.85 1013.87 1013.93 1013.93 1014.03 1014.12 1014.00 1013.89 1013.73 1013.74 1013.70 1013.46 1013.39 1013.31 1013.27 1013.33 1013.36 1013.37 1013.29 1013.43 1013.60 1013.93 1014.32 1014.74 1015.49 1014.76 1013.03 1012.83 1013.12 1013.33 1013.26 1013.64 1013.64 1013.66 1013.43 1013.50 1013.89 1013.93 1014.03 1013.77 1013.73 1013.53 1013.47 1013.22 1013.13
1013.71 1013.69 1013.61 1013.60 1013.55 1013.58 1013.59 1013.74 1013.66 1013.48 1013.35 1013.35 1013.27 1013.15 1012.95 1012.98 1013.05 1013.16 1013.11 1013.15 1013.18 1013.28 1013.38 1013.67 1013.98 1014.71 1014.67 1012.66 1012.81 1012.86 1013.05 1012.93 1013.15 1013.29 1013.29 1013.22 1013.18 1013.09 1013.05 1013.52 1013.35 1013.55 1013.82 1013.67 1013.31 1012.92 1012.64
1013.40 1013.29 1013.37 1013.21 1013.17 1013.21 1013.15 1013.32 1013.21 1013.09 1012.98 1012.93 1012.84 1012.79 1012.66 1012.63 1012.67 1012.75 1012.81 1012.78 1012.91 1013.04 1013.31 1013.43 1013.76 1014.54 1013.41 1012.42 1012.64 1013.18 1013.16 1012.77 1012.68 1012.86 1013.38 1012.92 1012.70 1012.92 1012.97 1012.82 1013.15 1013.70 1014.04 1013.93 1013.09 1012.74 1012.28
1013.14 1012.89 1013.00 1012.83 1012.67 1012.75 1012.61 1012.77 1012.78 1012.73 1012.53 1012.53 1012.44 1012.44 1012.37 1012.31 1012.23 1012.25 1012.50 1012.72 1012.85 1013.06 1013.25 1013.58 1014.09 1014.30 1013.10 1012.04 1012.31 1012.50 1012.91 1013.19 1012.72 1012.80 1013.13 1013.00 1013.06 1012.90 1012.68 1012.78 1013.40 1013.63 1013.82 1013.94 1013.48 1012.56 1012.62
1012.91 1012.59 1012.53 1012.40 1012.23 1012.26 1012.09 1012.20 1012.33 1012.32 1012.12 1011.96 1011.99 1012.03 1011.99 1011.91 1011.70 1011.75 1011.90 1012.45 1012.69 1013.21 1013.53 1013.85 1014.09 1014.57 1012.98 1011.81 1011.79 1011.91 1012.21 1012.91 1012.91 1012.93 1013.41 1012.87 1012.94 1012.78 1012.69 1012.96 1013.03 1013.45 1013.82 1013.79 1013.60 1012.93 1012.79
1012.65 1012.36 1012.13 1011.99 1011.85 1011.74 1011.64 1011.69 1011.83 1011.78 1011.67 1011.49 1011.49 1011.49 1011.50 1011.43 1011.21 1010.99 1011.32 1012.24 1013.24 1013.52 1013.06 1012.47 1012.61 1012.34 1011.56 1011.41 1011.33 1011.61 1011.75 1012.57 1012.71 1012.60 1012.34 1012.05 1012.08 1011.49 1012.21 1012.36 1012.95 1013.15 1013.75 1013.81 1013.22 1013.02 1013.04
1012.16 1012.01 1011.77 1011.54 1011.50 1011.34 1011.19 1011.17 1011.32 1011.30 1011.20 1011.07 1010.96 1011.07 1011.06 1010.91 1010.61 1010.45 1010.89 1011.27 1011.14 1011.08 1012.12 1012.00 1011.84 1011.99 1011.41 1011.53 1011.39 1011.15 1011.26 1012.08 1011.91 1011.84 1012.33 1011.87 1011.03 1011.47 1012.17 1012.67 1013.09 1013.32 1013.68 1013.82 1013.36 1013.14 1013.22
1011.77 1011.55 1011.36 1011.17 1011.03 1010.93 1010.77 1010.76 1010.80 1010.82 1010.75 1010.72 1010.58 1010.63 1010.57 1010.34 1010.05 1009.98 1010.04 1010.23 1010.64 1010.82 1011.38 1011.37 1011.30 1011.12 1011.11 1011.49 1011.03 1010.66 1010.86 1011.18 1011.51 1011.83 1011.41 1010.80 1010.76 1011.43 1012.07 1012.66 1013.13 1013.44 1013.77 1013.80 1013.86 1013.42 1013.03
1011.32 1011.08 1010.97 1010.76 1010.60 1010.45 1010.38 1010.30 1010.29 1010.32 1010.26 1010.25 1009.97 1010.06 1010.14 1009.93 1010.19 1009.79 1009.78 1010.20 1010.69 1010.93 1011.61 1010.97 1010.76 1010.06 1010.39 1010.95 1010.52 1009.94 1010.18 1010.47 1010.99 1011.07 1011.35 1011.23 1011.20 1011.01 1011.59 1012.33 1012.83 1013.46 1013.46 1013.70 1013.99 1014.54 1014.38
1010.94 1010.57 1010.45 1010.33 1010.14 1009.99 1009.90 1009.81 1009.68 1009.77 1009.73 1009.73 1009.65 1009.58 1009.62 1009.57 1009.48 1009.23 1009.08 1009.68 1010.65 1011.53 1010.63 1009.73 1009.69 1008.87 1009.23 1010.41 1009.56 1009.82 1009.55 1010.03 1010.27 1010.13 1010.74 1010.61 1010.93 1010.96 1011.28 1011.62 1012.60 1012.99 1013.09 1013.65 1014.10 1014.77 1014.85
1010.38 1010.13 1009.86 1009.85 1009.66 1009.55 1009.35 1009.29 1009.13 1009.26 1009.17 1009.20 1009.14 1009.09 1009.20 1009.29 1009.15 1008.85 1008.79 1009.69 1010.85 1010.76 1009.27 1009.06 1008.64 1008.87 1009.62 1009.88 1009.43 1009.76 1009.94 1010.15 1009.84 1010.26 1010.67 1010.54 1010.36 1010.62 1011.03 1011.65 1012.16 1012.69 1013.54 1014.08 1014.67 1015.04 1015.03
1009.89 1009.63 1009.40 1009.27 1009.13 1009.01 1008.87 1008.74 1008.58 1008.71 1008.53 1008.54 1008.45 1008.62 1008.81 1008.53 1008.33 1008.65 1009.10 1009.61 1010.32 1009.49 1008.88 1008.43 1008.35 1008.43 1008.84 1009.20 1009.37 1009.23 1009.82 1010.12 1009.04 1009.81 1010.58 1010.63 1010.61 1010.39 1010.48 1011.65 1012.23 1012.85 1013.62 1014.74 1015.14 1015.39 1014.63
1009.28 1009.10 1008.89 1008.77 1008.65 1008.48 1008.32 1008.25 1008.11 1008.12 1007.96 1007.91 1007.75 1007.91 1007.88 1007.89 1007.85 1008.29 1009.15 1009.55 1009.14 1007.45 1007.30 1007.07 1007.61 1008.10 1008.40 1008.50 1008.78 1009.14 1009.08 1009.08 1009.04 1008.40 1009.67 1010.28 1011.26 1010.33 1010.02 1010.46 1011.73 1012.87 1013.32 1013.87 1014.43 1014.97 1014.46
1008.68 1008.65 1008.37 1008.25 1008.16 1008.02 1007.80 1007.76 1007.63 1007.58 1007.37 1007.27 1007.10 1006.91 1006.86 1006.81 1007.38 1007.97 1009.09 1008.72 1007.03 1005.56 1005.68 1006.04 1007.24 1007.56 1008.02 1007.82 1008.40 1008.55 1008.98 1008.62 1008.36 1007.96 1008.51 1010.19 1010.18 1010.00 1009.63 1010.03 1011.17 1012.54 1012.72 1012.93 1013.87 1014.72 1014.61
1008.08 1008.06 1007.84 1007.68 1007.57 1007.49 1007.34 1007.33 1007.19 1007.08 1006.81 1006.76 1006.73 1006.66 1006.26 1006.08 1006.91 1007.84 1008.26 1006.99 1005.05 1004.07 1004.79 1005.56 1005.70 1006.46 1007.05 1007.40 1007.72 1008.10 1008.13 1007.38 1007.33 1007.59 1007.40 1008.56 1009.88 1010.01 1010.12 1010.18 1011.14 1011.25 1011.92 1013.04 1013.82 1014.50 1014.39
1007.40 1007.37 1007.29 1007.09 1007.07 1007.05 1006.94 1006.95 1006.79 1006.64 1006.36 1006.29 1006.54 1006.36 1005.91 1005.77 1006.77 1007.23 1006.54 1005.75 1004.06 1003.79 1003.95 1004.28 1004.75 1005.54 1005.93 1006.53 1007.07 1007.42 1007.64 1007.33 1006.69 1007.28 1007.07 1008.05 1009.02 1010.61 1010.40 1010.40 1010.94 1011.53 1011.81 1012.70 1013.17 1014.03 1014.11
1006.72 1006.71 1006.71 1006.59 1006.58 1006.61 1006.55 1006.56 1006.42 1006.30 1006.09 1006.33 1006.26 1006.23 1006.17 1006.40 1006.48 1005.92 1005.17 1003.55 1003.49 1003.61 1003.53 1003.50 1003.83 1004.56 1005.20 1006.05 1006.44 1006.71 1006.77 1006.27 1005.99 1006.32 1007.22 1007.57 1008.67 1010.40 1010.42 1010.29 1010.32 1010.53 1011.16 1011.87 1012.85 1014.05 1014.28
1005.89 1006.10 1006.12 1006.06 1006.09 1006.13 1006.17 1006.09 1006.08 1006.02 1005.88 1006.31 1006.12 1006.00 1006.20 1006.21 1005.22 1004.63 1004.00 1003.50 1003.37 1003.50 1003.32 1003.41 1003.47 1003.77 1004.19 1005.16 1005.84 1006.37 1006.35 1005.91 1005.82 1005.99 1006.35 1007.20 1008.46 1010.13 1010.79 1010.88 1010.58 1010.57 1011.04 1011.54 1012.34 1013.04 1013.51
1005.06 1005.36 1005.57 1005.49 1005.58 1005.65 1005.69 1005.69 1005.71 1005.69 1005.63 1006.10 1005.98 1005.77 1006.03 1005.86 1004.93 1004.34 1003.90 1003.76 1003.46 1003.44 1003.34 1003.01 1003.02 1003.26 1003.78 1004.51 1004.72 1005.91 1006.48 1005.92 1005.83 1005.90 1006.08 1006.52 1007.88 1008.50 1009.05 1009.14 1009.75 1010.63 1010.81 1011.33 1011.75 1012.91 1012.88
1004.42 1004.65 1004.91 1004.92 1005.05 1005.17 1005.17 1005.25 1005.26 1005.30 1005.30 1005.81 1005.67 1004.67 1004.32 1004.70 1004.27 1003.87 1003.57 1003.34 1003.29 1003.20 1003.11 1002.65 1002.97 1003.18 1003.38 1004.28 1004.78 1005.62 1006.02 1006.10 1006.27 1006.39 1006.81 1007.12 1007.90 1008.44 1008.81 1008.81 1009.01 1009.38 1009.95 1010.68 1011.29 1011.27 1011.62
1003.69 1003.98 1004.17 1004.38 1004.50 1004.64 1004.70 1004.77 1004.82 1004.88 1004.99 1005.29 1005.09 1004.49 1004.36 1003.95 1003.39 1003.44 1003.43 1003.18 1002.99 1002.95 1002.77 1002.79 1002.98 1003.40 1003.28 1003.87 1004.21 1004.78 1005.20 1005.61 1006.02 1006.87 1006.85 1007.22 1008.22 1008.30 1009.15 1009.05 1009.13 1009.44 1009.69 1010.14 1010.62 1010.74 1010.78
1002.94 1003.31 1003.48 1003.82 1004.01 1004.09 1004.22 1004.34 1004.42 1004.42 1004.76 1004.62 1004.51 1004.10 1003.77 1003.88 1003.53 1003.53 1003.00 1002.80 1002.98 1003.02 1003.40 1003.04 1003.03 1003.67 1003.92 1004.15 1004.29 1004.48 1004.93 1005.28 1005.65 1006.37 1007.25 1007.85 1008.11 1008.90 1009.67 1009.49 1009.49 1009.67 1008.97 1009.46 1009.87 1009.93 1010.02
1002.29 1002.58 1002.82 1003.22 1003.46 1003.61 1003.77 1003.89 1003.96 1003.93 1004.18 1004.07 1003.98 1004.02 1004.03 1003.81 1003.57 1003.32 1002.94 1002.91 1003.32 1003.38 1003.70 1003.90 1003.60 1004.03 1005.09 1004.79 1004.60 1004.88 1005.31 1005.95 1006.40 1007.07 1007.10 1007.86 1008.46 1009.20 1010.23 1010.14 1009.81 1008.48 1008.33 1008.54 1009.31 1009.69 1009.81
1001.67 1001.84 1002.13 1002.62 1002.94 1003.13 1003.29 1003.40 1003.50 1003.49 1003.67 1003.73 1003.72 1003.86 1003.72 1003.89 1003.84 1003.52 1003.48 1003.61 1004.02 1004.35 1004.86 1004.83 1005.01 1005.51 1005.22 1005.10 1005.34 1005.97 1006.61 1006.89 1007.71 1008.01 1007.86 1007.71 1008.64 1010.02 1010.46 1010.42 1009.39 1008.54 1008.49 1008.63 1008.73 1010.06 1010.05
1001.04 1001.25 1001.50 1002.01 1002.36 1002.61 1002.82 1002.97 1003.10 1003.12 1003.29 1003.37 1003.45 1003.55 1003.40 1003.62 1004.11 1003.54 1003.87 1004.07 1004.69 1005.07 1005.70 1005.89 1005.86 1005.82 1005.71 1006.02 1006.16 1007.42 1007.63 1007.52 1008.27 1008.61 1008.51 1008.55 1008.60 1009.51 1010.65 1010.34 1009.33 1008.17 1007.87 1007.87 1008.34 1009.91 1010.21
1000.33 1000.60 1000.99 1001.43 1001.78 1002.13 1002.33 1002.59 1002.74 1002.80 1002.92 1003.06 1003.14 1003.25 1003.19 1003.77 1004.09 1003.76 1003.78 1004.08 1004.49 1004.97 1005.71 1006.02 1006.01 1006.21 1006.30 1006.62 1007.60 1008.18 1008.61 1008.34 1008.70 1008.92 1009.32 1009.57 1009.92 1010.63 1010.85 1010.51 1009.32 1008.30 1008.14 1008.24 1009.53 1010.43 1010.44
999.90 1000.02 1000.44 1000.89 1001.27 1001.69 1001.98 1002.22 1002.41 1002.48 1002.55 1002.72 1002.93 1002.97 1003.06 1003.64 1004.27 1004.03 1003.85 1003.96 1004.30 1004.65 1005.36 1006.09 1006.47 1006.60 1006.97 1007.27 1007.90 1008.32 1008.58 1008.65 1008.71 1009.01 1009.05 1009.25 1010.15 1010.93 1011.11 1010.71 1009.59 1008.51 1008.70 1009.09 1009.83 1010.39 1010.73
999.50 999.46 999.95 1000.29 1000.78 1001.34 1001.60 1001.87 1002.10 1002.17 1002.22 1002.44 1002.80 1002.81 1002.87 1003.22 1004.58 1004.41 1004.24 1004.12 1004.02 1004.12 1004.88 1005.77 1005.89 1005.89 1006.11 1006.95 1008.21 1008.59 1009.09 1009.34 1009.15 1009.42 1009.22 1009.50 1009.29 1009.73 1009.93 1009.66 1009.11 1009.03 1009.08 1009.36 1009.85 1010.53 1011.25
Wind_Speed
7 9 9 11 10 9 11 11 9 10 9 10 10 11 10 9 9 8 8 9 8 11 11 11 11 9 4 7 11 4 9 12 13 12 14 9 6 6 8 6 4 4 4 3 7 9 7
9 13 9 10 11 10 9 11 10 10 10 11 12 11 10 8 9 9 9 8 8 10 11 12 10 10 3 15 4 12 11 7 3 12 14 10 7 6 6 6 10 6 7 8 5 10 6
8 11 8 9 10 9 9 11 11 11 11 11 13 11 11 9 8 10 11 10 9 9 11 12 12 5 8 17 3 5 6 10 4 12 15 12 9 6 6 3 5 3 3 7 6 5 8
7 8 8 8 11 10 9 11 12 12 12 12 12 10 9 11 11 12 11 12 10 9 9 12 12 2 8 4 14 15 7 6 4 8 15 6 12 3 3 2 5 6 2 3 4 2 4
10 8 8 9 10 13 12 12 12 12 12 12 11 10 10 12 11 14 11 9 11 9 8 7 3 3 7 3 9 8 9 6 2 5 4 10 4 5 4 4 4 3 4 6 8 5 3
12 11 9 10 11 11 13 11 11 13 13 12 12 11 12 14 14 12 16 10 5 3 2 2 1 3 6 5 4 6 8 9 4 9 9 11 6 6 4 5 8 7 4 3 6 2 2
12 10 11 8 11 10 11 12 12 14 14 12 12 12 12 14 16 15 11 5 5 2 5 8 9 4 2 7 5 7 7 8 4 6 13 13 10 12 13 13 3 6 4 6 5 4 2
12 10 11 8 10 9 10 11 11 14 14 14 13 13 12 16 16 9 10 5 6 4 5 14 4 15 8 1 4 8 14 10 7 10 15 9 16 14 8 8 5 3 3 5 7 1 3
12 11 10 11 9 9 10 11 11 14 14 14 11 10 13 15 10 6 10 12 5 3 1 6 9 5 5 8 8 13 19 7 5 13 22 9 6 14 12 6 10 3 5 4 6 7 4
12 14 10 12 10 9 10 10 11 14 13 13 10 10 12 12 3 4 6 10 6 7 4 6 10 8 8 2 6 14 15 9 5 19 20 7 5 15 15 10 7 9 6 3 3 4 4
15 15 12 11 11 11 9 11 10 13 12 12 11 11 9 10 4 5 2 13 8 2 2 11 8 4 12 8 5 15 16 8 10 10 9 6 14 11 15 16 10 4 6 6 3 3 2
13 14 14 12 12 9 9 10 10 12 12 11 12 11 6 4 3 1 9 12 5 4 6 10 8 10 10 11 4 10 9 0 3 9 3 4 5 10 8 4 11 7 6 3 3 2 3
11 13 12 11 12 10 9 9 11 10 11 11 12 11 5 3 4 7 8 5 3 5 4 8 7 10 12 7 10 11 17 17 10 14 16 1 3 3 7 7 4 5 7 2 1 1 7
13 13 12 12 11 11 9 9 11 11 11 11 13 11 7 7 10 13 2 3 6 3 9 5 7 12 7 8 9 14 10 8 11 3 12 7 6 9 6 7 7 8 8 6 6 5 4
13 12 14 13 11 13 8 9 11 12 11 11 12 5 3 8 12 10 6 4 5 6 8 12 12 7 5 10 2 10 19 12 12 13 10 10 5 2 4 5 13 7 9 4 5 2 1
13 12 13 13 12 12 9 9 11 12 10 9 2 2 3 13 14 9 4 5 8 6 13 14 7 6 9 15 8 5 5 10 15 10 6 7 6 1 2 6 3 8 9 3 3 3 4
12 12 14 13 11 11 8 9 10 12 9 4 2 1 4 14 8 6 4 7 4 11 10 7 6 6 7 8 5 4 8 3 8 7 4 6 5 2 6 6 9 3 4 4 5 4 4
12 12 13 13 9 10 7 8 9 11 8 3 2 1 3 7 6 4 7 4 7 12 0 3 4 5 10 8 5 5 8 5 9 8 8 3 7 6 2 2 4 4 8 6 6 4 1
12 12 11 11 9 9 7 9 7 10 1 1 2 3 3 3 3 3 2 2 3 4 1 4 4 5 8 6 6 4 5 3 7 6 9 8 2 6 2 1 3 4 4 5 5 4 7
12 10 11 10 10 8 10 8 6 8 3 2 2 3 3 3 2 2 3 4 3 1 4 4 5 6 8 4 3 7 6 0 2 4 5 7 4 7 10 4 7 5 5 5 6 4 5
13 11 10 11 11 9 10 8 6 7 5 4 2 3 4 4 5 5 4 7 3 5 7 2 3 12 6 6 5 5 3 5 3 5 4 4 4 3 3 4 5 7 10 10 9 8 8
14 13 11 10 11 9 9 8 7 5 3 2 3 3 1 1 0 5 4 6 4 3 5 1 7 4 4 4 3 9 8 5 6 3 2 3 2 3 2 3 2 2 4 8 4 4 2
14 14 10 10 11 9 8 8 9 4 6 2 1 1 2 0 2 3 3 5 6 5 2 3 7 7 10 2 0 5 6 7 6 7 4 5 6 4 3 1 2 4 9 8 5 4 8
15 13 11 10 10 10 8 9 9 4 5 3 3 2 3 2 2 2 2 2 5 3 5 4 6 5 4 3 4 6 11 12 11 8 2 6 5 3 4 2 1 4 1 6 7 2 4
19 14 12 12 11 10 9 9 8 5 4 2 2 3 3 2 1 2 4 5 6 6 4 4 5 3 3 3 5 5 4 3 5 6 6 3 5 4 5 5 4 0 5 7 7 3 2
19 14 13 12 11 11 10 8 8 6 3 2 1 2 3 6 4 3 4 3 4 4 3 2 1 1 4 3 4 3 2 2 2 2 4 5 7 5 3 5 8 1 2 4 4 2 6
17 14 13 12 11 10 11 9 8 7 4 3 2 2 2 5 2 1 3 5 5 4 5 3 3 2 1 2 3 4 4 2 5 7 5 3 4 4 2 2 6 4 3 2 5 4 4
19 16 15 13 11 11 11 9 8 7 5 3 1 2 2 4 1 3 3 4 3 2 5 6 5 1 3 3 3 3 3 4 3 3 5 6 7 4 3 2 7 2 4 6 4 3 6
19 15 15 13 12 12 11 10 9 8 6 4 1 0 0 5 3 1 2 1 2 2 6 2 1 3 5 6 1 3 3 2 3 3 3 1 5 5 7 5 0 1 2 4 4 6 5
Wind_Direction
322 296 290 276 275 281 285 284 286 292 294 292 291 294 294 284 283 274 275 273 258 254 245 234 224 210 153 216 229 264 359 4 221 213 216 206 170 156 181 177 136 201 259 241 248 276 256
330 320 286 291 272 271 285 282 286 292 289 287 284 288 281 288 272 273 268 260 256 243 246 237 222 187 156 240 218 259 293 327 292 190 218 203 204 191 159 194 182 204 219 269 287 275 256
325 329 320 308 291 272 286 283 286 286 280 282 283 287 288 285 279 277 264 259 251 237 236 234 205 164 213 225 170 66 334 229 215 198 214 207 222 204 137 145 204 195 298 301 261 259 256
312 319 305 296 296 280 281 281 279 279 279 281 286 286 294 280 275 266 265 256 255 256 242 235 214 118 242 201 244 271 300 309 218 178 219 260 212 240 199 191 80 144 140 271 279 308 282
318 306 300 290 291 289 270 272 275 276 276 270 281 294 297 290 279 264 234 247 245 238 245 245 188 186 264 198 215 220 226 277 186 157 259 258 181 209 174 145 149 168 199 209 304 205 230
317 322 309 294 286 294 296 270 276 271 269 271 273 277 289 293 286 268 230 219 238 175 250 82 349 162 270 222 172 174 165 216 244 146 222 215 185 189 177 163 193 172 205 212 232 257 206
308 317 317 307 304 283 293 275 280 273 271 273 274 270 284 286 289 279 197 156 106 203 201 200 176 250 288 211 138 182 161 174 237 146 198 197 192 188 185 194 151 154 190 215 256 260 268
301 306 309 312 306 292 287 286 283 276 276 274 280 279 269 280 278 249 158 183 190 169 184 230 218 220 250 337 182 184 153 173 177 178 207 190 205 194 144 155 174 139 180 253 283 208 191
290 299 303 303 295 296 288 284 282 277 279 280 290 307 297 283 268 202 181 186 115 99 316 200 210 235 232 212 233 180 167 191 131 173 203 202 207 182 161 156 175 186 193 251 237 335 311
287 292 296 300 291 287 290 284 280 279 278 275 272 277 280 292 168 156 204 154 132 86 244 180 192 248 166 202 251 164 181 176 166 191 197 227 153 174 172 174 163 221 196 205 282 23 259
281 287 294 292 296 286 285 289 280 275 276 276 267 273 269 213 294 188 180 160 144 216 173 156 174 168 139 209 150 175 178 215 167 171 176 170 171 171 172 195 167 213 149 191 215 208 355
276 283 293 284 280 277 281 283 287 280 274 269 268 263 273 242 228 119 127 128 137 225 215 181 156 171 147 206 217 137 176 10 171 152 65 201 148 155 160 158 177 155 81 60 53 87 291
278 278 283 284 286 278 274 284 295 295 279 270 266 263 233 173 182 145 126 131 136 242 155 150 165 156 167 163 177 156 177 206 170 155 188 172 161 143 140 134 75 99 114 288 290 293 229
266 277 282 281 285 285 280 285 300 304 288 279 271 265 222 202 161 134 105 94 228 136 196 152 132 138 168 157 194 168 204 194 234 174 147 164 198 172 174 177 148 181 173 163 194 201 257
263 267 275 276 291 292 289 293 303 302 291 284 289 272 209 177 162 137 140 204 243 189 185 149 129 138 195 178 263 190 196 200 203 181 156 168 193 160 160 126 141 195 201 192 101 8 50
252 257 269 277 286 292 288 295 303 302 303 299 236 220 207 168 159 148 170 253 227 132 114 145 144 176 175 176 195 134 157 181 161 194 158 191 100 31 135 95 75 172 159 110 4 222 247
251 254 268 279 285 290 280 291 305 309 321 303 162 157 359 151 157 175 227 224 248 140 141 166 121 157 184 151 194 125 166 193 187 175 101 131 110 181 132 187 157 156 163 57 121 136 173
247 258 271 276 280 286 283 288 303 316 346 114 184 69 142 143 190 183 231 234 162 144 66 126 94 135 145 140 147 142 180 227 178 146 142 182 120 139 159 270 178 161 167 153 148 215 130
237 257 265 268 273 284 280 281 304 313 32 123 153 111 156 240 242 180 306 124 118 165 295 149 143 163 140 149 123 131 259 292 147 133 165 176 106 102 86 70 340 188 176 127 114 96 188
226 242 256 263 263 269 284 284 294 303 187 127 200 133 153 206 267 254 133 170 204 285 273 210 159 148 143 128 49 135 169 112 128 106 88 91 139 153 189 185 140 176 176 166 140 149 174
226 234 245 257 254 258 275 284 284 292 271 142 190 212 180 200 235 223 185 169 204 178 219 174 119 154 152 127 91 122 126 107 44 134 82 127 133 120 36 133 136 178 177 178 192 190 182
220 229 230 249 249 256 267 282 276 289 142 162 183 160 159 253 135 151 205 201 188 139 26 84 110 106 84 126 162 166 145 138 172 160 131 77 158 110 64 58 107 185 182 180 185 160 189
215 225 217 236 242 246 258 269 266 272 177 199 249 337 152 65 110 169 225 164 175 143 41 20 130 100 61 296 171 85 87 81 123 133 127 150 133 118 170 101 111 294 213 183 178 178 151
218 216 213 224 232 236 250 255 257 249 210 180 209 122 115 233 145 217 183 91 128 68 118 346 59 77 209 123 112 74 70 74 64 44 65 126 99 78 127 90 200 239 297 172 129 116 145
248 212 203 214 221 231 247 240 248 238 213 176 178 155 145 131 159 78 94 100 87 73 55 53 10 3 291 58 61 58 18 73 35 29 17 48 124 107 142 192 290 215 183 152 155 198 169
257 210 200 203 211 225 240 224 237 232 215 143 200 173 129 125 239 130 123 154 143 121 96 94 16 182 79 76 54 101 202 185 184 70 15 49 69 101 90 144 208 231 134 129 127 243 179
237 206 198 200 207 222 225 208 224 224 209 163 218 215 109 109 287 36 145 164 125 88 98 131 133 113 37 102 102 154 188 176 171 171 171 72 38 127 128 232 287 232 160 169 123 213 138
269 201 194 194 201 208 210 200 212 220 202 171 193 203 146 103 355 28 0 127 92 106 143 177 97 306 51 82 130 180 134 204 97 155 178 157 133 170 115 149 267 166 69 161 169 68 128
288 193 195 189 194 198 201 197 201 214 210 177 155 195 231 83 146 19 70 45 55 143 127 20 155 156 168 93 82 112 116 117 148 211 20 199 165 181 173 214 240 10 137 107 122 132 169